Left ArrowRight Arrow

Hourly Observations for November 11, 2019

Temp ( °F °C ) Dew Point ( °F °C ) Humidity (%) Winds ( mph kmh ) Pressure ( in mb ) Visibility ( mi km ) Precip ( " mm )
12:51 am 00:51 Cloudy 39 3.9 29 -1.7 67 67 NNW 5 7 30.18 1022 10 16 0.00 0.00
1:51 am 01:51 Mostly Cloudy 45 7.2 32 0 61 61 N 12 19 30.18 1022 10 16 0.00 0.00
2:51 am 02:51 Mostly Cloudy 41 5 27 -2.8 57 57 WNW 8 13 30.21 1023 10 16 0.00 0.00
3:51 am 03:51 Mostly Cloudy 41 5 24 -4.4 51 51 N 9 15 30.23 1024 10 16 0.00 0.00
4:51 am 04:51 Mostly Clear 38 3.3 23 -5 55 55 NNW 7 11 30.25 1024 10 16 0.00 0.00
5:51 am 05:51 Clear 35 1.7 22 -5.6 59 59 Calm 30.32 1027 10 16 0.00 0.00
6:51 am 06:51 Clear 31 -0.6 22 -5.6 69 69 E 3 6 30.36 1028 10 16 0.00 0.00
7:51 am 07:51 Sunny 28 -2.2 21 -6.1 75 75 Calm 30.40 1030 10 16 0.00 0.00
8:51 am 08:51 Sunny 37 2.8 24 -4.4 59 59 Calm 30.40 1030 10 16 0.00 0.00
9:51 am 09:51 Sunny 39 3.9 24 -4.4 55 55 Calm 30.42 1030 10 16 0.00 0.00
10:51 am 10:51 Sunny 43 6.1 23 -5 45 45 S 6 9 30.42 1030 10 16 0.00 0.00
11:51 am 11:51 Sunny 47 8.3 23 -5 39 39 NNE 3 6 30.39 1029 10 16 0.00 0.00
12:51 pm 12:51 Sunny 49 9.4 22 -5.6 35 35 NNE 5 7 30.37 1028 10 16 0.00 0.00
1:51 pm 13:51 Sunny 50 10 20 -6.7 30 30 VRB 3 6 30.32 1027 10 16 0.00 0.00
2:51 pm 14:51 Sunny 51 10.6 16 -8.9 25 25 N 5 7 30.33 1027 7 11 0.00 0.00
3:51 pm 15:51 Sunny 51 10.6 16 -8.9 25 25 Calm 30.33 1027 7 11 0.00 0.00
4:35 pm 16:35 Hazy 50 10 17 -8.3 27 27 Calm 30.29 1026 3 4 0.00 0.00
4:51 pm 16:51 Sunny 49 9.4 15 -9.4 26 26 Calm 30.35 1028 8 13 0.00 0.00
5:51 pm 17:51 Clear 43 6.1 18 -7.8 37 37 SSE 3 6 30.38 1029 10 16 0.00 0.00
6:51 pm 18:51 Clear 35 1.7 21 -6.1 57 57 E 6 9 30.42 1030 10 16 0.00 0.00
7:51 pm 19:51 Clear 30 -1.1 20 -6.7 66 66 Calm 30.46 1031 10 16 0.00 0.00
8:51 pm 20:51 Clear 30 -1.1 20 -6.7 66 66 Calm 30.43 1031 10 16 0.00 0.00
9:51 pm 21:51 Clear 30 -1.1 20 -6.7 66 66 Calm 30.43 1030 10 16 0.00 0.00
10:51 pm 22:51 Clear 26 -3.3 19 -7.2 75 75 Calm 30.42 1030 10 16 0.00 0.00
11:51 pm 23:51 Clear 24 -4.4 18 -7.8 77 77 Calm 30.42 1030 10 16 0.00 0.00

Powered by Vaisala Xweather